205  
ASUS43 KLSX 231410  
RWRMO  
 
WEATHER SUMMARY FOR MISSOURI  
NATIONAL WEATHER SERVICE SPRINGFIELD MO  
900 AM CDT WED MAY 23 2018  
 
NOTE: "FAIR" INDICATES FEW OR NO CLOUDS BELOW 12,000 FEET WITH NO  
SIGNIFICANT WEATHER AND/OR S TO VISIBILITY
.  
CURRENT SKY AND/OR WEATHER CONDITIONS ARE NOT AVAILABLE FOR  
CHILLICOTHE AND FARMINGTON.  
 
MOZ001>031-035>038-043-044-053-054-231500-   
..NORTHERN AND WESTERN MISSOURI
 
 
 
CITY SKY/WX TMP DP RH WIND PRES REMARKS
 
KANSAS CTY INT MOSUNNY 75 67 76 S7 30.11R  
KANSAS C DTWN SUNNY 78 66 66 CALM 30.09R  
LEE'S SUMMIT SUNNY 76 68 76 S8 30.12R  
ST JOSEPH SUNNY 76 67 73 SE6 30.10R  
CHILLICOTHE N/A 75 66 73 S6 30.13R  
KIRKSVILLE SUNNY 74 65 73 SE12 30.16R  
 

 
MOZ066>068-077>081-088>096-101>105-231500-   
..SOUTHWEST MISSOURI
 
 
 
CITY SKY/WX TMP DP RH WIND PRES REMARKS
 
SPRINGFIELD SUNNY 76 67 73 SE6 30.13R  
JOPLIN SUNNY 76 70 82 S6 30.12R  
BRANSON PTSUNNY 72 72 100 CALM 30.15R  
 

 
MOZ032>034-039>042-045>050-055>058-069>072-231500-   
..CENTRAL MISSOURI
 
 
 
CITY SKY/WX TMP DP RH WIND PRES REMARKS
 
COLUMBIA SUNNY 75 63 66 SE9G18 30.14R  
JEFFERSON CITY SUNNY 75 64 68 SE8 30.13R  
ROLLA SUNNY 73 63 70 E12 30.16R  
SEDALIA SUNNY 76 69 79 S3 30.13R  
WHITEMAN AFB MOSUNNY 75 68 77 S6 30.08R  
WARRENSBURG SUNNY 73 66 78 CALM 30.11S  
OSAGE BEACH SUNNY 74 67 78 SE5 30.14R  
 

 
MOZ051-052-059>065-231500-   
..EAST CENTRAL MISSOURI
 
 
 
CITY SKY/WX TMP DP RH WIND PRES REMARKS
 
ST LOUIS INTL MOSUNNY 74 62 66 SE9 30.17R  
SPIRIT OF STL SUNNY 75 63 66 E5 30.15R  
ST CHARLES SUNNY 73 64 73 E12 30.16R  
 

 
MOZ072>076-082>087-097>100-106>115-231500-   
..SOUTH CENTRAL AND SOUTHEAST MISSOURI
 
 
 
CITY SKY/WX TMP DP RH WIND PRES REMARKS
 
CAPE GIRARDEAU FAIR 75 65 70 NE6 30.13R  
FARMINGTON MOSUNNY 75 64 68 E6 30.17R  
POPLAR BLUFF FAIR 75 68 78 NE7 30.12R  
WEST PLAINS CLOUDY 76 70 82 SE3 30.17R  
 

 
 
 
CLICK HERE TO GO TO PREVIOUS BULLETINS.

The Nexlab MO Page Main Text Page